FW2418 Weather Reports


Display with metric or nautical units.
time (UTC)temp
F
wind
direction
speed
MPH
gust
MPH
rain 1hr
in
rain 24hr
in
rain mn
in
humidity
%
barometer
mb
20260906081914 75 160 0.0 0.0 0.00 0.09 0.00 99 1008.9
20260906080914 75 160 0.0 0.0 0.00 0.09 0.00 99 1008.6
20260906075842 75 160 0.0 0.0 0.00 0.09 0.00 99 1008.6
20260906074841 75 160 0.0 0.0 0.00 0.09 0.00 99 1008.9
20260906073840 75 160 0.0 0.0 0.00 0.09 0.00 99 1008.6
20260906072839 75 160 0.0 0.0 0.00 0.09 0.00 99 1008.9
20260906071838 75 160 0.0 0.0 0.00 0.09 0.00 99 1008.9
20260906070735 75 160 0.0 0.0 0.00 0.09 0.00 98 1008.9
20260906065703 75 160 0.0 0.0 0.00 0.09 0.00 99 1008.9
20260906064703 75 160 0.0 0.0 0.00 0.09 0.00 98 1008.9
20260906063702 75 160 0.0 0.0 0.00 0.09 0.00 98 1009.3
20260906062701 75 160 0.0 0.0 0.00 0.09 0.00 98 1009.6
20260906061700 75 160 0.0 0.0 0.00 0.09 0.00 98 1009.6
20260906060700 75 160 0.0 0.0 0.00 0.09 0.00 98 1009.6
20260906055627 75 160 0.0 0.0 0.00 0.09 0.00 98 1009.6
20260906054627 75 160 0.0 0.0 0.00 0.09 0.00 98 1010.0
20260906053626 75 160 0.0 0.0 0.00 0.09 0.00 98 1010.0
20260906052553 75 160 0.0 0.0 0.00 0.09 0.00 98 1010.3
20260906051553 76 160 0.0 0.0 0.00 0.09 0.00 98 1010.3
20260906050521 76 160 0.0 0.0 0.00 0.09 0.00 97 1010.3
20260906045520 76 160 0.0 0.0 0.00 0.09 0.00 97 1010.3
20260906044519 76 160 0.0 0.0 0.00 0.09 0.00 97 1010.7
20260906043518 76 160 0.0 0.0 0.00 0.09 0.00 97 1010.7
20260906042517 77 160 0.0 0.0 0.00 0.09 0.00 97 1010.7
20260906041516 77 160 0.0 0.0 0.00 0.09 0.00 97 1010.7
20260906040515 77 160 0.0 0.0 0.00 0.09 0.00 97 1010.7
20260906035514 77 160 0.0 0.0 0.00 0.09 0.09 97 1010.7
20260906034513 77 160 0.0 0.0 0.00 0.09 0.09 97 1010.7
20260906033441 77 160 0.0 0.0 0.00 0.09 0.09 98 1010.6
20260906032440 77 160 0.0 0.0 0.00 0.09 0.09 97 1010.6
20260906031440 77 160 0.0 0.0 0.00 0.09 0.09 97 1010.6
20260906030439 77 160 0.0 0.0 0.00 0.09 0.09 97 1010.6
20260906025438 77 160 0.0 0.0 0.00 0.09 0.09 97 1010.6
20260906024437 77 160 0.0 0.0 0.00 0.09 0.09 97 1010.6
20260906023436 77 160 0.0 0.0 0.00 0.09 0.09 97 1010.6
20260906022435 77 160 0.0 1.0 0.00 0.09 0.09 97 1010.6
20260906021434 78 160 0.0 1.0 0.00 0.09 0.09 97 1010.6
20260906020434 78 160 0.0 1.0 0.00 0.09 0.09 97 1010.6
20260906015433 78 165 0.0 2.0 0.00 0.09 0.09 97 1010.6
20260906014432 78 141 1.0 2.0 0.00 0.09 0.09 97 1010.6
20260906013431 78 163 0.0 1.0 0.00 0.09 0.09 97 1010.3
20260906012358 78 152 0.0 1.0 0.00 0.09 0.09 97 1010.3
20260906011357 78 156 1.0 1.0 0.00 0.09 0.09 97 1010.3
20260906010356 78 135 0.0 1.0 0.00 0.10 0.09 97 1009.9
20260906005355 78 141 0.0 1.0 0.00 0.12 0.09 97 1009.9
20260906004323 78 139 1.0 1.0 0.00 0.14 0.09 97 1009.9
20260906003323 78 134 0.0 1.0 0.00 0.16 0.09 97 1009.9
20260906002321 78 134 0.0 1.0 0.00 0.17 0.09 97 1009.9
20260906001320 78 134 0.0 1.0 0.00 0.19 0.09 97 1009.9
20260906000319 78 134 1.0 1.0 0.00 0.21 0.09 97 1009.9
20260905235319 78 128 0.0 1.0 0.00 0.22 0.09 97 1009.6
20260905234318 78 111 0.0 0.0 0.00 0.23 0.09 96 1009.9
20260905233245 79 111 0.0 0.0 0.00 0.23 0.09 96 1009.9
20260905232244 79 111 0.0 1.0 0.00 0.24 0.09 95 1009.9
20260905231244 79 112 0.0 1.0 0.00 0.24 0.09 96 1009.9
20260905230243 79 108 1.0 1.0 0.00 0.24 0.09 96 1009.9
20260905225242 79 118 1.0 1.0 0.00 0.24 0.09 95 1009.9
20260905224241 79 258 1.0 1.0 0.00 0.24 0.09 96 1009.9
20260905223240 79 159 0.0 1.0 0.00 0.25 0.09 96 1009.6
20260905222239 79 72 1.0 2.0 0.00 0.26 0.09 96 1009.6
20260905221239 79 36 0.0 1.0 0.00 0.27 0.09 96 1009.6
20260905220238 78 36 0.0 0.0 0.01 0.27 0.09 96 1009.6
20260905215205 78 36 0.0 1.0 0.01 0.27 0.09 96 1009.6
20260905214205 78 27 0.0 1.0 0.02 0.28 0.09 96 1009.6
20260905213204 78 49 0.0 1.0 0.03 0.31 0.09 96 1009.6
20260905212203 77 49 1.0 1.0 0.04 0.33 0.09 96 1009.9
20260905211132 77 49 0.0 1.0 0.04 0.33 0.09 96 1009.9
20260905210130 77 48 0.0 1.0 0.03 0.32 0.08 96 1010.3
20260905205130 77 48 0.0 1.0 0.03 0.32 0.08 96 1010.3
20260905204129 77 105 0.0 1.0 0.03 0.31 0.07 95 1010.6
20260905203128 77 118 0.0 3.0 0.03 0.30 0.06 95 1010.6
20260905202127 77 97 0.0 4.0 0.04 0.29 0.05 94 1010.6
20260905201126 77 306 1.0 1.0 0.04 0.29 0.05 95 1011.0
20260905200054 77 4 0.0 1.0 0.04 0.29 0.05 95 1010.6
20260905195053 78 155 0.0 2.0 0.04 0.29 0.05 94 1011.0
20260905194021 78 131 1.0 5.0 0.03 0.28 0.04 92 1011.3
20260905193020 80 267 1.0 5.0 0.02 0.27 0.03 86 1011.3
20260905192019 84 270 1.0 5.0 0.00 0.25 0.01 82 1011.3
20260905191019 86 326 2.0 9.0 0.00 0.25 0.01 76 1010.6
20260905190018 86 309 2.0 10.0 0.00 0.25 0.01 77 1010.0
20260905185017 87 344 2.0 10.0 0.00 0.25 0.01 75 1010.3
20260905184016 91 307 2.0 10.0 0.00 0.25 0.01 69 1010.3
20260905183015 94 270 3.0 6.0 0.00 0.25 0.01 63 1010.3
20260905182014 94 261 1.0 7.0 0.00 0.25 0.01 66 1010.3
20260905181013 95 200 2.0 7.0 0.00 0.25 0.01 62 1010.3
20260905175941 93 257 1.0 3.0 0.00 0.25 0.01 67 1010.0
20260905174937 93 299 1.0 3.0 0.00 0.25 0.01 67 1010.3
20260905173937 93 232 1.0 3.0 0.00 0.25 0.01 67 1010.3
20260905172936 92 161 1.0 3.0 0.00 0.25 0.01 67 1010.7
20260905171935 92 173 1.0 3.0 0.00 0.25 0.01 70 1010.7
20260905170934 91 249 2.0 3.0 0.00 0.25 0.01 68 1011.0
20260905165933 91 289 1.0 3.0 0.00 0.25 0.01 72 1011.3
20260905164901 90 256 1.0 2.0 0.00 0.25 0.01 73 1011.3
20260905163900 90 293 1.0 2.0 0.00 0.25 0.01 76 1011.7
20260905162859 89 288 1.0 3.0 0.00 0.25 0.01 75 1011.7
20260905161858 89 289 1.0 3.0 0.00 0.25 0.01 78 1012.0
20260905160826 90 288 1.0 3.0 0.00 0.25 0.01 77 1012.0
20260905155825 90 245 1.0 2.0 0.00 0.25 0.01 80 1012.0
20260905154824 89 250 1.0 2.0 0.00 0.25 0.01 82 1012.3
20260905153823 88 231 1.0 2.0 0.00 0.25 0.01 83 1012.3
20260905152751 87 281 1.0 2.0 0.00 0.25 0.01 86 1012.7
20260905151750 86 273 1.0 2.0 0.00 0.25 0.01 87 1012.7
20260905150749 86 279 1.0 1.0 0.00 0.25 0.01 88 1012.7
20260905145717 85 266 1.0 1.0 0.00 0.25 0.01 91 1012.7
20260905144716 83 313 1.0 1.0 0.00 0.25 0.01 94 1012.7
20260905143716 82 222 0.0 1.0 0.00 0.25 0.01 95 1012.7
20260905142715 81 222 0.0 1.0 0.00 0.25 0.01 96 1012.3
20260905141714 80 265 0.0 1.0 0.00 0.25 0.01 96 1012.3
20260905140713 79 264 0.0 1.0 0.00 0.25 0.01 97 1012.3
20260905135712 79 259 0.0 1.0 0.00 0.25 0.01 98 1012.3
20260905134711 79 226 0.0 0.0 0.00 0.25 0.01 99 1012.3
20260905133710 78 226 0.0 1.0 0.00 0.25 0.01 100 1012.3
20260905132709 78 226 0.0 1.0 0.00 0.25 0.01 100 1012.3
20260905131708 78 127 0.0 0.0 0.00 0.25 0.01 100 1012.3
20260905130708 77 127 0.0 0.0 0.00 0.25 0.01 100 1012.3
20260905125707 77 127 0.0 0.0 0.00 0.25 0.01 100 1012.3
20260905124706 77 127 0.0 0.0 0.00 0.25 0.01 100 1012.3
20260905123634 77 127 0.0 0.0 0.00 0.25 0.01 100 1011.9
20260905122602 77 127 0.0 0.0 0.00 0.25 0.01 100 1011.9
20260905121601 77 127 0.0 0.0 0.00 0.25 0.01 100 1011.9
20260905120600 76 127 0.0 0.0 0.00 0.25 0.01 100 1011.9
20260905115559 76 127 0.0 0.0 0.00 0.25 0.01 100 1011.9
20260905114558 76 127 0.0 0.0 0.00 0.25 0.01 100 1011.6
20260905113557 76 127 0.0 0.0 0.00 0.25 0.01 100 1011.6
20260905112556 76 127 0.0 0.0 0.00 0.25 0.01 100 1011.6
20260905111555 76 127 0.0 0.0 0.00 0.25 0.01 100 1011.6
20260905110554 76 127 0.0 0.0 0.00 0.25 0.01 100 1011.6
20260905105522 76 127 0.0 0.0 0.00 0.25 0.01 100 1011.3
20260905104522 76 127 0.0 0.0 0.00 0.25 0.01 100 1011.3
20260905103521 76 127 0.0 0.0 0.00 0.25 0.01 100 1010.9
20260905102520 75 127 0.0 0.0 0.00 0.25 0.01 100 1010.9
20260905101519 75 127 0.0 0.0 0.00 0.25 0.01 100 1010.9
20260905100518 75 127 0.0 0.0 0.00 0.25 0.01 100 1010.9
20260905095517 75 127 0.0 0.0 0.00 0.25 0.01 100 1010.9
20260905094516 75 127 0.0 0.0 0.01 0.25 0.01 100 1010.9
20260905093516 75 127 0.0 0.0 0.01 0.25 0.01 100 1010.9
20260905092515 75 127 0.0 0.0 0.01 0.25 0.01 100 1010.9
20260905091514 74 127 0.0 0.0 0.01 0.25 0.01 99 1011.3
20260905090514 74 127 0.0 0.0 0.01 0.25 0.01 99 1011.3
20260905085513 75 127 0.0 0.0 0.01 0.25 0.01 99 1011.3
20260905084441 75 127 0.0 0.0 0.00 0.24 0.00 99 1011.3
20260905083440 75 127 0.0 0.0 0.00 0.24 0.00 99 1011.3
20260905082408 75 127 0.0 0.0 0.00 0.24 0.00 99 1011.3